Location: East Guldeford
(50.9500°N, 0.7500°E)
Time: 09:44:19
(UTC+00:00)

Cosmos 1867 - Pass Details

Date: 12 May 2021
Orbit: 773 x 802 km, 65.0° (Epoch: 16 June)

Event Time Altitude Azimuth Distance (km) Brightness Sun altitude
Exits shadow 22:54:34 31° 129° (SE) 1,372 4.4 -19.5°
Maximum altitude 22:55:11 32° 116° (ESE) 1,351 4.4 -19.5°
Drops below altitude 10° 22:59:58 10° 55° (NE) 2,380 6.3 -19.7°
Sets 23:02:37 0° 46° (NE) 3,318 7.2 -19.8°
